Tracking 18840 objects as of 18-November-2017
HD Live streaming from Space Station
objects crossing your sky now

FENGYUN 1C DEB

Track FENGYUN 1C DEB now!
10-day predictions


NORAD ID: 35099
Int'l Code: 1999-025DKB
Perigee: 481.5 km
Apogee: 690.5 km
Inclination: 98.3 °
Period: 96.2 minutes
Semi major axis: 6957 km
RCS: 0.0101 m2 (small)
Launch date: May 10, 1999
Source: People's Republic of China (PRC)
Launch site: Taiyaun Space Center, China (TSC)

Note: This is SATELLITE DEBRIS
aabbcc
Your satellite tracking list
Your tracking list is empty




NASA's NSSDC Master Catalog

Two Line Element Set (TLE):
1 35099U 99025DKB 17321.47809909 +.00007587 +00000-0 +54142-3 0  9997
2 35099 098.2814 049.1163 0150202 170.3025 190.1152 14.96125923515600
Source of the keplerian elements: AFSPC